Regional Weather Roundup
Issued by NWS Cleveland, OH

Home | Current Version | Previous Version | Graphics & Text | Print | Product List | Glossary On
Versions: 1 2 3 4 5 6 7 8 9 10 11 12 13 14 15 16 17 18 19 20 21 22 23 24 25 26 27 28 29 30 31 32 33 34 35 36 37 38 39 40 41 42 43 44 45 46 47 48 49 50
000
ASUS41 KCLE 051410
RWRCLE
OHIO REGIONAL WEATHER ROUNDUP
NATIONAL WEATHER SERVICE WILMINGTON, OH
1000 AM EDT SUN JUL 05 2015

NOTE: "FAIR" INDICATES FEW OR NO CLOUDS BELOW 12,000 FEET WITH NO
SIGNIFICANT WEATHER AND/OR OBSTRUCTIONS TO VISIBILITY.

OHZ001>008-015>018-024>027-034-035-043-044-051500-
   NORTHWEST OHIO

CITY           SKY/WX    TMP DP  RH WIND       PRES   REMARKS
DEFIANCE       MOSUNNY   72  61  68 S3        30.12S
FINDLAY        MOSUNNY   72  61  68 CALM      30.12S
TOLEDO EXPRESS SUNNY     73  61  65 CALM      30.13R
TOLEDO EXEC    MOSUNNY   71  58  63 CALM      30.14R
LIMA           MOSUNNY   71  59  65 S5        30.12F
$$

OHZ009>014-019>023-028>033-038-089-051500-
   NORTHEAST OHIO

CITY           SKY/WX    TMP DP  RH WIND       PRES   REMARKS
CLE-HOPKINS    PTSUNNY   70  54  56 S12       30.16S
CLE-LAKEFRONT  PTSUNNY   71  55  56 S9        30.14R
CUY CO. ARPT   MOSUNNY   72  54  53 S8        30.16R
LORAIN-ELYRIA  MOSUNNY   67  56  67 S8        30.15S
ASHTABULA      SUNNY     70  59  68 S5        30.17S
AKRON-CANTON   PTSUNNY   69  54  58 SE3       30.15F
WOOSTER        SUNNY     67  59  75 CALM      30.16S
MANSFIELD      MOSUNNY   70  55  59 S6        30.14F
YOUNGSTOWN     PTSUNNY   68  56  65 E8        30.17S
$$

OHZ042-051>053-060>062-070>072-077>081-051500-
  SOUTHWEST OHIO

CITY           SKY/WX    TMP DP  RH WIND       PRES   REMARKS
CINC-COVINGTON CLOUDY    72  59  63 E7        30.10S
CINC-LUNKEN    CLOUDY    70  62  76 N6        30.10F
HAMILTON       PTSUNNY   71  63  75 CALM      30.11F
DAYTON         CLOUDY    74  60  61 E6        30.12F
WRIGHT-PAT AFB PTSUNNY   69  61  77 VRB2      30.11F
DAYTON GENERAL PTSUNNY   70  60  70 E6        30.11S
WILMINGTON     CLOUDY    68  60  75 E3        30.11F
$$

OHZ036-037-039>041-045>050-054>059-063>069-073>076-082>088-051500-
  CENTRAL AND SOUTHEAST OHIO

CITY           SKY/WX    TMP DP  RH WIND       PRES   REMARKS
COLUMBUS       PTSUNNY   74  58  57 E6        30.11F
OSU AIRPORT    PTSUNNY   71  58  63 E6        30.12F
BOLTON FIELD   SUNNY     72  61  68 E3        30.12F
RICKENBACK AFB PTSUNNY   66  59  78 NE5       30.11S
NEWARK         PTSUNNY   68  57  68 CALM      30.12F
MARION         MOSUNNY   69  58  67 SE5       30.13F
LANCASTER      PTSUNNY   70  63  78 CALM      30.12F
ZANESVILLE     PTSUNNY   69  59  70 SE5       30.13F
NEW PHILLY     MOSUNNY   67  59  75 CALM      30.15F
$$



USA.gov is the U.S. government's official web portal to all federal, state and local government web resources and services.